Flag for Tunisia Weather past 2 weeks in Sfax, Tunisia

Now
52 °F

Passing clouds.


Feels Like: 46 °F
Forecast: 48 / 58 °F
Wind: 21 mph from Northwest

Location: Sfax El-Maou

Current Time: Mar 6, 2015 at 9:12:10 PM

Latest Report: Mar 6, 2015 at 8:00 PM


Visibility: 5 mi

Pressure: 30.18 "Hg

Humidity: 54%

Dew point: 36 °F

Location of SfaxLocation

Historic Weather in Sfax — Graph

°F

Sfax temperature yesterday

Maximum temperature yesterday: 63 °F (at 1:00 AM)
Minimum temperature yesterday: 50 °F (at 11:00 PM)
Average temperature yesterday: 57 °F

Past Weeks' High & Low Weather Summary

 TemperatureHumidityPressure
High77 °F (Mar 3, 3:00 PM)100% (Feb 21, 5:00 PM)30.33 "Hg (Feb 21, 5:00 PM)
Low39 °F (Feb 24, 6:00 AM)25% (Feb 25, 4:00 PM)29.39 "Hg (Feb 22, 5:00 AM)
Average55 °F65%29.98 "Hg
* Reported Feb 19 8:00 PM — Mar 6 8:00 PM, Sfax, Weather by CustomWeather, © 2015

Note: Actual official high and low records may vary slightly from our data, if they occured in-between our weather recording intervals... More about our weather records

Advertising

Sfax weather history for previous 24 hours

 ConditionsComfort  
Time TempWeatherWind HumidityBarometerVisibility
8:00 PM
Fri, Mar 6
52 °FPassing clouds.21 mph54%30.18 "Hg5 mi
7:00 PM52 °FPassing clouds.25 mph54%30.15 "Hg5 mi
6:00 PM55 °FScattered clouds.23 mph44%30.12 "HgN/A
5:00 PM57 °FScattered clouds.20 mph33%30.09 "HgN/A
4:00 PM57 °FScattered clouds.23 mph33%30.09 "HgN/A
3:00 PM59 °FScattered clouds.18 mph34%30.07 "HgN/A
2:00 PM59 °FScattered clouds.21 mph36%30.09 "HgN/A
1:00 PM59 °FPassing clouds.18 mph31%30.09 "HgN/A
12:00 PM59 °FPassing clouds.22 mph34%30.12 "HgN/A
11:00 AM57 °FPassing clouds.17 mph39%30.12 "HgN/A
10:00 AM55 °FPassing clouds.21 mph41%30.12 "HgN/A
9:00 AM52 °FPassing clouds.18 mph50%30.12 "HgN/A
8:00 AM48 °FScattered clouds.8 mph58%30.09 "HgN/A
7:00 AM45 °FScattered clouds.6 mph66%30.09 "HgN/A
6:00 AM45 °FPassing clouds.7 mph71%30.07 "HgN/A
4:00 AM48 °FPassing clouds.12 mph62%30.04 "HgN/A
2:00 AM50 °FPassing clouds.13 mph58%30.07 "HgN/A
1:00 AM50 °FPassing clouds.10 mph62%30.07 "HgN/A
12:00 AM50 °FPassing clouds.10 mph58%30.07 "HgN/A
11:00 PM
Thu, Mar 5
50 °FPassing clouds.8 mph58%30.07 "HgN/A
10:00 PM52 °FPassing clouds.10 mph50%30.07 "HgN/A
9:00 PM54 °FPassing clouds.14 mph47%30.04 "HgN/A
Weather by CustomWeather, © 2015

See weather overviewHow to use our weather pages